Time,TemperatureF,DewpointF,PressureIn,WindDirection,WindDirectionDegrees,WindSpeedMPH,WindSpeedGustMPH,Humidity,HourlyPrecipIn,Conditions,Clouds,dailyrainin,SoftwareType,DateUTC
2013-08-16 00:01:00,58.5,51.7,30.14,WSW,247,0.0,0.0,78,0.00,,,0.00,WUHU21636XXSP,2013-08-16 05:01:00,
2013-08-16 00:06:00,58.5,52.1,30.14,WSW,247,0.0,0.0,79,0.00,,,0.00,WUHU21636XXSP,2013-08-16 05:06:00,
2013-08-16 00:11:00,58.3,51.9,30.14,WSW,247,0.0,0.0,79,0.00,,,0.00,WUHU21636XXSP,2013-08-16 05:11:00,
2013-08-16 00:19:00,58.3,51.9,30.15,WSW,247,0.0,0.0,79,0.00,,,0.00,WUHU21636XXSP,2013-08-16 05:19:00,
2013-08-16 00:24:00,58.2,51.8,30.15,WSW,247,0.0,0.0,79,0.00,,,0.00,WUHU21636XXSP,2013-08-16 05:24:00,
2013-08-16 00:29:00,58.0,51.5,30.15,WSW,247,0.0,0.0,79,0.00,,,0.00,WUHU21636XXSP,2013-08-16 05:29:00,
2013-08-16 00:34:00,58.0,51.9,30.15,WSW,247,0.0,0.0,80,0.00,,,0.00,WUHU21636XXSP,2013-08-16 05:34:00,
2013-08-16 00:39:00,57.8,51.7,30.15,WSW,247,0.0,0.0,80,0.00,,,0.00,WUHU21636XXSP,2013-08-16 05:39:00,
2013-08-16 00:44:00,57.8,51.7,30.15,WSW,247,0.0,0.0,80,0.00,,,0.00,WUHU21636XXSP,2013-08-16 05:44:00,
2013-08-16 00:49:00,57.8,51.7,30.15,WSW,247,0.0,0.0,80,0.00,,,0.00,WUHU21636XXSP,2013-08-16 05:49:00,
2013-08-16 00:54:00,57.5,51.5,30.15,WSW,247,0.0,0.0,80,0.00,,,0.00,WUHU21636XXSP,2013-08-16 05:54:00,
2013-08-16 00:59:00,57.5,51.5,30.15,WSW,247,0.0,0.0,80,0.00,,,0.00,WUHU21636XXSP,2013-08-16 05:59:00,
2013-08-16 01:04:00,57.5,51.5,30.14,WSW,247,0.0,0.0,80,0.00,,,0.00,WUHU21636XXSP,2013-08-16 06:04:00,
2013-08-16 01:09:00,57.5,51.5,30.15,WSW,247,0.0,0.0,80,0.00,,,0.00,WUHU21636XXSP,2013-08-16 06:09:00,
2013-08-16 01:14:00,57.5,51.5,30.15,WSW,247,0.0,0.0,80,0.00,,,0.00,WUHU21636XXSP,2013-08-16 06:14:00,
2013-08-16 01:19:00,57.3,51.6,30.15,WSW,247,0.0,0.0,81,0.00,,,0.00,WUHU21636XXSP,2013-08-16 06:19:00,
2013-08-16 01:24:00,57.3,51.6,30.14,WSW,247,0.0,0.0,81,0.00,,,0.00,WUHU21636XXSP,2013-08-16 06:24:00,
2013-08-16 01:29:00,57.3,51.6,30.14,WSW,247,0.0,0.0,81,0.00,,,0.00,WUHU21636XXSP,2013-08-16 06:29:00,
2013-08-16 01:34:00,57.3,51.6,30.14,WSW,247,0.0,0.0,81,0.00,,,0.00,WUHU21636XXSP,2013-08-16 06:34:00,
2013-08-16 01:39:00,57.2,51.5,30.14,WSW,247,0.0,0.0,81,0.00,,,0.00,WUHU21636XXSP,2013-08-16 06:39:00,
2013-08-16 01:44:00,57.2,51.5,30.14,WSW,247,0.0,0.0,81,0.00,,,0.00,WUHU21636XXSP,2013-08-16 06:44:00,
2013-08-16 01:49:00,57.2,51.5,30.14,WSW,247,0.0,0.0,81,0.00,,,0.00,WUHU21636XXSP,2013-08-16 06:49:00,
2013-08-16 01:54:00,57.2,51.5,30.14,WSW,247,0.0,0.0,81,0.00,,,0.00,WUHU21636XXSP,2013-08-16 06:54:00,
2013-08-16 01:59:00,57.0,51.3,30.14,WSW,247,0.0,0.0,81,0.00,,,0.00,WUHU21636XXSP,2013-08-16 06:59:00,
2013-08-16 02:04:00,57.0,51.3,30.15,WSW,247,0.0,0.0,81,0.00,,,0.00,WUHU21636XXSP,2013-08-16 07:04:00,
2013-08-16 02:09:00,57.0,51.3,30.14,WSW,247,0.0,0.0,81,0.00,,,0.00,WUHU21636XXSP,2013-08-16 07:09:00,
2013-08-16 02:14:00,57.0,51.3,30.14,WSW,247,0.0,0.0,81,0.00,,,0.00,WUHU21636XXSP,2013-08-16 07:14:00,
2013-08-16 02:19:00,57.0,51.3,30.14,WSW,247,0.0,0.0,81,0.00,,,0.00,WUHU21636XXSP,2013-08-16 07:19:00,
2013-08-16 02:24:00,56.8,51.1,30.14,WSW,247,0.0,0.0,81,0.00,,,0.00,WUHU21636XXSP,2013-08-16 07:24:00,
2013-08-16 02:29:00,56.8,51.1,30.14,WSW,247,0.0,0.0,81,0.00,,,0.00,WUHU21636XXSP,2013-08-16 07:29:00,
2013-08-16 02:34:00,56.6,50.9,30.14,WSW,247,0.0,0.0,81,0.00,,,0.00,WUHU21636XXSP,2013-08-16 07:34:00,
2013-08-16 02:39:00,56.6,50.9,30.14,WSW,247,0.0,0.0,81,0.00,,,0.00,WUHU21636XXSP,2013-08-16 07:39:00,
2013-08-16 02:44:00,56.6,50.9,30.13,WSW,247,0.0,0.0,81,0.00,,,0.00,WUHU21636XXSP,2013-08-16 07:44:00,
2013-08-16 02:49:00,56.6,50.9,30.13,WSW,247,0.0,0.0,81,0.00,,,0.00,WUHU21636XXSP,2013-08-16 07:49:00,
2013-08-16 02:54:00,56.4,50.7,30.13,WSW,247,0.0,0.0,81,0.00,,,0.00,WUHU21636XXSP,2013-08-16 07:54:00,
2013-08-16 02:59:00,56.4,50.7,30.13,WSW,247,0.0,0.0,81,0.00,,,0.00,WUHU21636XXSP,2013-08-16 07:59:00,
2013-08-16 03:04:00,56.4,50.7,30.14,WSW,247,0.0,0.0,81,0.00,,,0.00,WUHU21636XXSP,2013-08-16 08:04:00,
2013-08-16 03:09:00,56.4,50.7,30.14,WSW,247,0.0,0.0,81,0.00,,,0.00,WUHU21636XXSP,2013-08-16 08:09:00,
2013-08-16 03:14:00,56.3,50.6,30.14,WSW,247,0.0,0.0,81,0.00,,,0.00,WUHU21636XXSP,2013-08-16 08:14:00,
2013-08-16 03:19:00,56.3,50.6,30.14,WSW,247,0.0,0.0,81,0.00,,,0.00,WUHU21636XXSP,2013-08-16 08:19:00,
2013-08-16 03:24:00,56.1,50.7,30.14,WSW,247,0.0,0.0,82,0.00,,,0.00,WUHU21636XXSP,2013-08-16 08:24:00,
2013-08-16 03:29:00,56.1,50.7,30.14,WSW,247,0.0,0.0,82,0.00,,,0.00,WUHU21636XXSP,2013-08-16 08:29:00,
2013-08-16 03:34:00,56.1,50.7,30.14,WSW,247,0.0,0.0,82,0.00,,,0.00,WUHU21636XXSP,2013-08-16 08:34:00,
2013-08-16 03:39:00,55.9,50.5,30.14,WSW,247,0.0,0.0,82,0.00,,,0.00,WUHU21636XXSP,2013-08-16 08:39:00,
2013-08-16 03:44:00,55.9,50.5,30.14,WSW,247,0.0,0.0,82,0.00,,,0.00,WUHU21636XXSP,2013-08-16 08:44:00,
2013-08-16 03:49:00,55.9,50.5,30.15,WSW,247,0.0,0.0,82,0.00,,,0.00,WUHU21636XXSP,2013-08-16 08:49:00,
2013-08-16 03:54:00,55.9,50.5,30.15,WSW,247,0.0,0.0,82,0.00,,,0.00,WUHU21636XXSP,2013-08-16 08:54:00,
2013-08-16 03:59:00,55.7,50.3,30.15,WSW,247,0.0,0.0,82,0.00,,,0.00,WUHU21636XXSP,2013-08-16 08:59:00,
2013-08-16 04:05:00,55.7,50.3,30.14,WSW,247,0.0,0.0,82,0.00,,,0.00,WUHU21636XXSP,2013-08-16 09:05:00,
2013-08-16 04:10:00,55.7,50.3,30.15,WSW,247,0.0,0.0,82,0.00,,,0.00,WUHU21636XXSP,2013-08-16 09:10:00,
2013-08-16 04:15:00,55.7,50.3,30.15,WSW,247,0.0,0.0,82,0.00,,,0.00,WUHU21636XXSP,2013-08-16 09:15:00,
2013-08-16 04:20:00,55.4,50.1,30.15,WSW,247,0.0,0.0,82,0.00,,,0.00,WUHU21636XXSP,2013-08-16 09:20:00,
2013-08-16 04:25:00,55.4,50.1,30.15,WSW,247,0.0,0.0,82,0.00,,,0.00,WUHU21636XXSP,2013-08-16 09:25:00,
2013-08-16 04:30:00,55.4,50.1,30.15,WSW,247,0.0,0.0,82,0.00,,,0.00,WUHU21636XXSP,2013-08-16 09:30:00,
2013-08-16 04:35:00,55.3,50.0,30.15,WSW,247,0.0,0.0,82,0.00,,,0.00,WUHU21636XXSP,2013-08-16 09:35:00,
2013-08-16 04:40:00,55.3,50.0,30.15,WSW,247,0.0,0.0,82,0.00,,,0.00,WUHU21636XXSP,2013-08-16 09:40:00,
2013-08-16 04:45:00,55.3,50.0,30.15,WSW,247,0.0,0.0,82,0.00,,,0.00,WUHU21636XXSP,2013-08-16 09:45:00,
2013-08-16 04:50:00,55.3,50.0,30.15,WSW,247,0.0,0.0,82,0.00,,,0.00,WUHU21636XXSP,2013-08-16 09:50:00,
2013-08-16 04:55:00,55.1,49.8,30.15,WSW,247,0.0,0.0,82,0.00,,,0.00,WUHU21636XXSP,2013-08-16 09:55:00,
2013-08-16 05:00:00,55.1,49.8,30.15,WSW,247,0.0,0.0,82,0.00,,,0.00,WUHU21636XXSP,2013-08-16 10:00:00,
2013-08-16 05:05:00,54.9,49.5,30.15,WSW,247,0.0,0.0,82,0.00,,,0.00,WUHU21636XXSP,2013-08-16 10:05:00,
2013-08-16 05:10:00,54.7,49.3,30.15,WSW,247,0.0,0.0,82,0.00,,,0.00,WUHU21636XXSP,2013-08-16 10:10:00,
2013-08-16 05:15:00,54.7,49.3,30.15,WSW,247,0.0,0.0,82,0.00,,,0.00,WUHU21636XXSP,2013-08-16 10:15:00,
2013-08-16 05:20:00,54.7,49.3,30.15,WSW,247,0.0,0.0,82,0.00,,,0.00,WUHU21636XXSP,2013-08-16 10:20:00,
2013-08-16 05:25:00,54.7,49.3,30.16,WSW,247,0.0,0.0,82,0.00,,,0.00,WUHU21636XXSP,2013-08-16 10:25:00,
2013-08-16 05:30:00,54.7,49.3,30.15,WSW,247,0.0,0.0,82,0.00,,,0.00,WUHU21636XXSP,2013-08-16 10:30:00,
2013-08-16 05:35:00,54.7,49.3,30.15,WSW,247,0.0,0.0,82,0.00,,,0.00,WUHU21636XXSP,2013-08-16 10:35:00,
2013-08-16 05:40:00,54.5,49.1,30.16,WSW,247,0.0,0.0,82,0.00,,,0.00,WUHU21636XXSP,2013-08-16 10:40:00,
2013-08-16 05:45:00,54.5,49.1,30.16,WSW,247,0.0,0.0,82,0.00,,,0.00,WUHU21636XXSP,2013-08-16 10:45:00,
2013-08-16 05:50:00,54.5,49.1,30.16,WSW,247,0.0,0.0,82,0.00,,,0.00,WUHU21636XXSP,2013-08-16 10:50:00,
2013-08-16 05:55:00,54.5,49.1,30.16,WSW,247,0.0,0.0,82,0.00,,,0.00,WUHU21636XXSP,2013-08-16 10:55:00,
2013-08-16 06:00:00,54.5,49.1,30.16,WSW,247,0.0,0.0,82,0.00,,,0.00,WUHU21636XXSP,2013-08-16 11:00:00,
2013-08-16 06:05:00,54.2,48.8,30.16,WSW,247,0.0,0.0,82,0.00,,,0.00,WUHU21636XXSP,2013-08-16 11:05:00,
2013-08-16 06:10:00,54.2,48.8,30.16,WSW,247,0.0,0.0,82,0.00,,,0.00,WUHU21636XXSP,2013-08-16 11:10:00,
2013-08-16 06:15:00,54.2,48.8,30.16,WSW,247,0.0,0.0,82,0.00,,,0.00,WUHU21636XXSP,2013-08-16 11:15:00,
2013-08-16 06:20:00,54.2,48.8,30.17,WSW,247,0.0,0.0,82,0.00,,,0.00,WUHU21636XXSP,2013-08-16 11:20:00,
2013-08-16 06:25:00,54.2,48.8,30.17,WSW,247,0.0,0.0,82,0.00,,,0.00,WUHU21636XXSP,2013-08-16 11:25:00,
2013-08-16 06:30:00,54.2,48.8,30.17,WSW,247,0.0,0.0,82,0.00,,,0.00,WUHU21636XXSP,2013-08-16 11:30:00,
2013-08-16 06:35:00,54.2,48.8,30.17,WSW,247,0.0,0.0,82,0.00,,,0.00,WUHU21636XXSP,2013-08-16 11:35:00,
2013-08-16 06:40:00,54.0,48.6,30.17,WSW,247,0.0,0.0,82,0.00,,,0.00,WUHU21636XXSP,2013-08-16 11:40:00,
2013-08-16 06:45:00,54.0,48.9,30.17,WSW,247,0.0,0.0,83,0.00,,,0.00,WUHU21636XXSP,2013-08-16 11:45:00,
2013-08-16 06:50:00,54.0,48.9,30.17,WSW,247,0.0,0.0,83,0.00,,,0.00,WUHU21636XXSP,2013-08-16 11:50:00,
2013-08-16 06:55:00,54.2,49.1,30.18,WSW,247,0.0,0.0,83,0.00,,,0.00,WUHU21636XXSP,2013-08-16 11:55:00,
2013-08-16 07:00:00,54.2,49.1,30.17,WSW,247,0.0,0.0,83,0.00,,,0.00,WUHU21636XXSP,2013-08-16 12:00:00,
2013-08-16 07:05:00,54.2,49.1,30.17,WSW,247,0.0,0.0,83,0.00,,,0.00,WUHU21636XXSP,2013-08-16 12:05:00,
2013-08-16 07:10:00,54.2,49.1,30.18,WSW,247,0.0,0.0,83,0.00,,,0.00,WUHU21636XXSP,2013-08-16 12:10:00,
2013-08-16 07:15:00,54.2,49.1,30.18,WSW,247,0.0,0.0,83,0.00,,,0.00,WUHU21636XXSP,2013-08-16 12:15:00,
2013-08-16 07:20:00,54.5,49.5,30.18,WSW,247,0.0,0.0,83,0.00,,,0.00,WUHU21636XXSP,2013-08-16 12:20:00,
2013-08-16 07:25:00,54.5,49.5,30.18,WSW,247,0.0,0.0,83,0.00,,,0.00,WUHU21636XXSP,2013-08-16 12:25:00,
2013-08-16 07:30:00,54.5,49.5,30.18,WSW,247,0.0,0.0,83,0.00,,,0.00,WUHU21636XXSP,2013-08-16 12:30:00,
2013-08-16 07:35:00,54.7,49.7,30.18,WSW,247,0.0,0.0,83,0.00,,,0.00,WUHU21636XXSP,2013-08-16 12:35:00,
2013-08-16 07:40:00,54.9,49.9,30.18,WSW,247,0.0,0.0,83,0.00,,,0.00,WUHU21636XXSP,2013-08-16 12:40:00,
2013-08-16 07:45:00,55.1,50.1,30.18,WSW,247,0.0,0.0,83,0.00,,,0.00,WUHU21636XXSP,2013-08-16 12:45:00,
2013-08-16 07:50:00,55.3,50.3,30.18,WSW,247,0.0,0.0,83,0.00,,,0.00,WUHU21636XXSP,2013-08-16 12:50:00,
2013-08-16 07:55:00,55.4,50.4,30.18,WSW,247,0.0,0.0,83,0.00,,,0.00,WUHU21636XXSP,2013-08-16 12:55:00,
2013-08-16 08:00:00,55.7,50.6,30.19,WSW,247,0.0,0.0,83,0.00,,,0.00,WUHU21636XXSP,2013-08-16 13:00:00,
2013-08-16 08:05:00,55.7,50.9,30.19,WSW,247,0.0,0.0,84,0.00,,,0.00,WUHU21636XXSP,2013-08-16 13:05:00,
2013-08-16 08:10:00,56.3,51.5,30.19,WSW,247,0.0,0.0,84,0.00,,,0.00,WUHU21636XXSP,2013-08-16 13:10:00,
2013-08-16 08:15:00,56.4,51.6,30.19,WSW,247,0.0,0.0,84,0.00,,,0.00,WUHU21636XXSP,2013-08-16 13:15:00,
2013-08-16 08:20:00,56.6,51.8,30.19,WSW,247,0.0,0.0,84,0.00,,,0.00,WUHU21636XXSP,2013-08-16 13:20:00,
2013-08-16 08:25:00,57.0,52.2,30.19,WSW,247,0.0,0.0,84,0.00,,,0.00,WUHU21636XXSP,2013-08-16 13:25:00,
2013-08-16 08:30:00,57.3,52.5,30.19,WSW,247,0.0,0.0,84,0.00,,,0.00,WUHU21636XXSP,2013-08-16 13:30:00,
2013-08-16 08:35:00,57.5,52.8,30.19,WSW,247,0.0,0.0,84,0.00,,,0.00,WUHU21636XXSP,2013-08-16 13:35:00,
2013-08-16 08:40:00,58.0,53.2,30.19,WSW,247,0.0,0.0,84,0.00,,,0.00,WUHU21636XXSP,2013-08-16 13:40:00,
2013-08-16 08:45:00,58.5,53.7,30.19,WSW,247,0.0,0.0,84,0.00,,,0.00,WUHU21636XXSP,2013-08-16 13:45:00,
2013-08-16 08:50:00,58.7,53.9,30.19,WSW,247,0.0,0.0,84,0.00,,,0.00,WUHU21636XXSP,2013-08-16 13:50:00,
2013-08-16 08:55:00,59.1,54.3,30.19,WSW,247,0.0,0.0,84,0.00,,,0.00,WUHU21636XXSP,2013-08-16 13:55:00,
2013-08-16 09:00:00,59.4,54.6,30.19,South,180,0.0,0.0,84,0.00,,,0.00,WUHU21636XXSP,2013-08-16 14:00:00,
2013-08-16 09:05:00,59.6,54.8,30.19,South,180,0.0,0.0,84,0.00,,,0.00,WUHU21636XXSP,2013-08-16 14:05:00,
2013-08-16 09:10:00,59.8,55.0,30.19,South,180,0.0,0.0,84,0.00,,,0.00,WUHU21636XXSP,2013-08-16 14:10:00,
2013-08-16 09:15:00,60.4,55.5,30.19,South,180,0.0,0.0,84,0.00,,,0.00,WUHU21636XXSP,2013-08-16 14:15:00,
2013-08-16 09:20:00,60.6,55.4,30.19,South,180,0.0,0.0,83,0.00,,,0.00,WUHU21636XXSP,2013-08-16 14:20:00,
2013-08-16 09:25:00,60.8,55.6,30.19,South,180,0.0,0.0,83,0.00,,,0.00,WUHU21636XXSP,2013-08-16 14:25:00,
2013-08-16 09:30:00,61.3,56.5,30.19,South,180,0.0,0.0,84,0.00,,,0.00,WUHU21636XXSP,2013-08-16 14:30:00,
2013-08-16 09:35:00,61.7,56.6,30.19,South,180,0.0,0.0,83,0.00,,,0.00,WUHU21636XXSP,2013-08-16 14:35:00,
2013-08-16 09:40:00,62.1,56.9,30.19,South,180,0.0,0.0,83,0.00,,,0.00,WUHU21636XXSP,2013-08-16 14:40:00,
2013-08-16 09:45:00,62.7,57.5,30.19,South,180,0.0,0.0,83,0.00,,,0.00,WUHU21636XXSP,2013-08-16 14:45:00,
2013-08-16 09:50:00,63.0,57.8,30.19,South,180,0.0,0.0,83,0.00,,,0.00,WUHU21636XXSP,2013-08-16 14:50:00,
2013-08-16 09:55:00,63.6,58.1,30.19,South,180,0.0,0.0,82,0.00,,,0.00,WUHU21636XXSP,2013-08-16 14:55:00,
2013-08-16 10:00:00,63.9,58.4,30.19,South,180,0.0,0.0,82,0.00,,,0.00,WUHU21636XXSP,2013-08-16 15:00:00,
2013-08-16 10:05:00,64.6,59.0,30.19,South,180,0.0,0.0,82,0.00,,,0.00,WUHU21636XXSP,2013-08-16 15:05:00,
2013-08-16 10:10:00,65.1,59.5,30.19,South,180,0.0,0.0,82,0.00,,,0.00,WUHU21636XXSP,2013-08-16 15:10:00,
2013-08-16 10:15:00,65.8,60.2,30.19,South,180,0.0,0.0,82,0.00,,,0.00,WUHU21636XXSP,2013-08-16 15:15:00,
2013-08-16 10:20:00,66.0,60.1,30.19,South,180,0.0,0.0,81,0.00,,,0.00,WUHU21636XXSP,2013-08-16 15:20:00,
2013-08-16 10:25:00,66.7,60.4,30.19,South,180,0.0,0.0,80,0.00,,,0.00,WUHU21636XXSP,2013-08-16 15:25:00,
2013-08-16 10:30:00,67.4,61.1,30.18,South,180,0.0,0.0,80,0.00,,,0.00,WUHU21636XXSP,2013-08-16 15:30:00,
2013-08-16 10:35:00,67.9,61.3,30.19,South,180,0.0,0.0,79,0.00,,,0.00,WUHU21636XXSP,2013-08-16 15:35:00,
2013-08-16 10:40:00,68.6,61.5,30.19,South,180,0.0,0.0,78,0.00,,,0.00,WUHU21636XXSP,2013-08-16 15:40:00,
2013-08-16 10:45:00,69.1,61.3,30.19,SSW,202,0.0,0.0,76,0.00,,,0.00,WUHU21636XXSP,2013-08-16 15:45:00,
2013-08-16 10:50:00,69.6,61.8,30.19,SSW,202,0.0,0.0,76,0.00,,,0.00,WUHU21636XXSP,2013-08-16 15:50:00,
2013-08-16 10:55:00,70.2,61.7,30.19,SSW,202,0.0,0.0,74,0.00,,,0.00,WUHU21636XXSP,2013-08-16 15:55:00,
2013-08-16 11:00:00,70.8,62.2,30.19,SSW,202,0.0,0.0,74,0.00,,,0.00,WUHU21636XXSP,2013-08-16 16:00:00,
2013-08-16 11:05:00,71.2,62.3,30.19,SSW,202,0.0,0.0,73,0.00,,,0.00,WUHU21636XXSP,2013-08-16 16:05:00,
2013-08-16 11:10:00,71.5,61.8,30.19,South,180,0.0,0.0,71,0.00,,,0.00,WUHU21636XXSP,2013-08-16 16:10:00,
2013-08-16 11:15:00,72.3,61.8,30.19,SE,135,0.0,0.0,69,0.00,,,0.00,WUHU21636XXSP,2013-08-16 16:15:00,
2013-08-16 11:20:00,72.4,60.7,30.19,WSW,247,4.0,4.0,66,0.00,,,0.00,WUHU21636XXSP,2013-08-16 16:20:00,
2013-08-16 11:25:00,72.9,58.8,30.19,WSW,247,0.0,4.0,61,0.00,,,0.00,WUHU21636XXSP,2013-08-16 16:25:00,
2013-08-16 11:30:00,73.4,58.4,30.19,South,180,3.4,3.4,59,0.00,,,0.00,WUHU21636XXSP,2013-08-16 16:30:00,
2013-08-16 11:35:00,73.6,58.6,30.19,WSW,247,0.0,3.4,59,0.00,,,0.00,WUHU21636XXSP,2013-08-16 16:35:00,
2013-08-16 11:40:00,73.8,59.3,30.19,WSW,247,0.0,0.0,60,0.00,,,0.00,WUHU21636XXSP,2013-08-16 16:40:00,
2013-08-16 11:45:00,74.2,58.7,30.19,WSW,247,0.0,0.0,58,0.00,,,0.00,WUHU21636XXSP,2013-08-16 16:45:00,
2013-08-16 11:50:00,74.3,57.3,30.19,SW,225,0.0,0.0,55,0.00,,,0.00,WUHU21636XXSP,2013-08-16 16:50:00,
2013-08-16 11:55:00,75.0,57.3,30.18,SW,225,0.0,0.0,54,0.00,,,0.00,WUHU21636XXSP,2013-08-16 16:55:00,
2013-08-16 12:00:00,75.3,57.6,30.19,SW,225,0.0,0.0,54,0.00,,,0.00,WUHU21636XXSP,2013-08-16 17:00:00,
2013-08-16 12:05:00,75.5,57.8,30.19,SSW,202,0.0,0.0,54,0.00,,,0.00,WUHU21636XXSP,2013-08-16 17:05:00,
2013-08-16 12:10:00,75.7,56.4,30.18,WSW,247,0.0,0.0,51,0.00,,,0.00,WUHU21636XXSP,2013-08-16 17:10:00,
2013-08-16 12:15:00,76.1,57.3,30.18,SSE,157,0.0,0.0,52,0.00,,,0.00,WUHU21636XXSP,2013-08-16 17:15:00,
2013-08-16 12:20:00,76.7,57.3,30.18,WSW,247,0.0,0.0,51,0.00,,,0.00,WUHU21636XXSP,2013-08-16 17:20:00,
2013-08-16 12:25:00,77.1,57.1,30.18,SE,135,0.0,5.2,50,0.00,,,0.00,WUHU21636XXSP,2013-08-16 17:25:00,
2013-08-16 12:30:00,77.4,57.4,30.18,SW,225,0.0,5.2,50,0.00,,,0.00,WUHU21636XXSP,2013-08-16 17:30:00,
2013-08-16 12:35:00,77.6,57.6,30.18,NNE,22,0.0,0.0,50,0.00,,,0.00,WUHU21636XXSP,2013-08-16 17:35:00,
2013-08-16 12:40:00,78.1,56.9,30.18,ESE,112,3.0,3.0,48,0.00,,,0.00,WUHU21636XXSP,2013-08-16 17:40:00,
2013-08-16 12:45:00,78.3,57.1,30.18,East,90,0.0,3.0,48,0.00,,,0.00,WUHU21636XXSP,2013-08-16 17:45:00,
2013-08-16 12:50:00,78.5,58.5,30.18,ESE,112,0.0,0.0,50,0.00,,,0.00,WUHU21636XXSP,2013-08-16 17:50:00,
2013-08-16 12:55:00,78.5,58.5,30.18,ESE,112,0.0,0.0,50,0.00,,,0.00,WUHU21636XXSP,2013-08-16 17:55:00,
2013-08-16 13:00:00,78.3,58.8,30.18,ESE,112,0.0,0.0,51,0.00,,,0.00,WUHU21636XXSP,2013-08-16 18:00:00,
2013-08-16 13:05:00,78.1,59.2,30.18,ESE,112,0.0,0.0,52,0.00,,,0.00,WUHU21636XXSP,2013-08-16 18:05:00,
2013-08-16 13:10:00,78.3,58.8,30.17,SE,135,0.0,0.0,51,0.00,,,0.00,WUHU21636XXSP,2013-08-16 18:10:00,
2013-08-16 13:15:00,78.8,58.6,30.17,WSW,247,0.0,0.0,50,0.00,,,0.00,WUHU21636XXSP,2013-08-16 18:15:00,
2013-08-16 13:20:00,79.3,57.4,30.17,West,270,0.8,0.8,47,0.00,,,0.00,WUHU21636XXSP,2013-08-16 18:20:00,
2013-08-16 13:25:00,79.3,56.1,30.17,East,90,0.0,0.8,45,0.00,,,0.00,WUHU21636XXSP,2013-08-16 18:25:00,
2013-08-16 13:30:00,80.0,58.6,30.17,ESE,112,0.0,0.8,48,0.00,,,0.00,WUHU21636XXSP,2013-08-16 18:30:00,
2013-08-16 13:35:00,80.2,58.2,30.17,ESE,112,0.0,0.0,47,0.00,,,0.00,WUHU21636XXSP,2013-08-16 18:35:00,
2013-08-16 13:40:00,80.4,59.6,30.17,SSE,157,0.0,0.0,49,0.00,,,0.00,WUHU21636XXSP,2013-08-16 18:40:00,
2013-08-16 13:45:00,80.4,55.2,30.18,WSW,247,3.0,3.0,42,0.00,,,0.00,WUHU21636XXSP,2013-08-16 18:45:00,
2013-08-16 13:50:00,80.0,54.1,30.17,WNW,292,2.2,3.0,41,0.00,,,0.00,WUHU21636XXSP,2013-08-16 18:50:00,
2013-08-16 13:55:00,80.6,57.4,30.17,WSW,247,0.0,2.2,45,0.00,,,0.00,WUHU21636XXSP,2013-08-16 18:55:00,
2013-08-16 14:00:00,81.2,55.9,30.17,West,270,0.0,0.0,42,0.00,,,0.00,WUHU21636XXSP,2013-08-16 19:00:00,
2013-08-16 14:05:00,81.2,56.5,30.17,West,270,0.0,3.4,43,0.00,,,0.00,WUHU21636XXSP,2013-08-16 19:05:00,
2013-08-16 14:10:00,81.6,58.8,30.17,SSE,157,0.0,3.4,46,0.00,,,0.00,WUHU21636XXSP,2013-08-16 19:10:00,
2013-08-16 14:15:00,81.9,57.9,30.17,South,180,0.0,0.0,44,0.00,,,0.00,WUHU21636XXSP,2013-08-16 19:15:00,
2013-08-16 14:20:00,82.3,56.2,30.16,SSW,202,0.0,0.0,41,0.00,,,0.00,WUHU21636XXSP,2013-08-16 19:20:00,
2013-08-16 14:25:00,82.5,59.1,30.16,ESE,112,6.2,6.2,45,0.00,,,0.00,WUHU21636XXSP,2013-08-16 19:25:00,
2013-08-16 14:30:00,82.1,57.4,30.16,West,270,0.0,6.2,43,0.00,,,0.00,WUHU21636XXSP,2013-08-16 19:30:00,
2013-08-16 14:35:00,82.1,56.7,30.17,WSW,247,0.0,0.0,42,0.00,,,0.00,WUHU21636XXSP,2013-08-16 19:35:00,
2013-08-16 14:40:00,81.2,55.2,30.16,West,270,0.0,0.0,41,0.00,,,0.00,WUHU21636XXSP,2013-08-16 19:40:00,
2013-08-16 14:45:00,81.2,57.2,30.16,West,270,0.0,3.4,44,0.00,,,0.00,WUHU21636XXSP,2013-08-16 19:45:00,
2013-08-16 14:50:00,81.6,57.6,30.16,West,270,2.6,3.4,44,0.00,,,0.00,WUHU21636XXSP,2013-08-16 19:50:00,
2013-08-16 14:55:00,81.8,57.1,30.16,East,90,5.2,5.2,43,0.00,,,0.00,WUHU21636XXSP,2013-08-16 19:55:00,
2013-08-16 15:00:00,82.1,57.4,30.16,WSW,247,0.0,5.2,43,0.00,,,0.00,WUHU21636XXSP,2013-08-16 20:00:00,
2013-08-16 15:05:00,82.7,58.0,30.16,SSE,157,0.0,0.0,43,0.00,,,0.00,WUHU21636XXSP,2013-08-16 20:05:00,
2013-08-16 15:10:00,82.3,58.2,30.16,SE,135,0.0,0.0,44,0.00,,,0.00,WUHU21636XXSP,2013-08-16 20:10:00,
2013-08-16 15:15:00,81.2,59.1,30.16,East,90,0.0,0.0,47,0.00,,,0.00,WUHU21636XXSP,2013-08-16 20:15:00,
2013-08-16 15:20:00,81.2,59.7,30.16,SSE,157,0.0,0.4,48,0.00,,,0.00,WUHU21636XXSP,2013-08-16 20:20:00,
2013-08-16 15:25:00,81.9,59.1,30.16,ESE,103,7.3,8.8,46,0.00,,,0.00,WUHU21636XXSP,2013-08-16 20:25:00,
2013-08-16 15:30:00,82.1,57.4,30.16,West,270,0.8,8.8,43,0.00,,,0.00,WUHU21636XXSP,2013-08-16 20:30:00,
2013-08-16 15:35:00,82.3,58.2,30.16,WSW,247,0.0,6.6,44,0.00,,,0.00,WUHU21636XXSP,2013-08-16 20:35:00,
2013-08-16 15:40:00,82.8,59.4,30.16,ESE,112,0.0,0.8,45,0.00,,,0.00,WUHU21636XXSP,2013-08-16 20:40:00,
2013-08-16 15:45:00,83.8,59.6,30.16,SE,135,0.0,0.0,44,0.00,,,0.00,WUHU21636XXSP,2013-08-16 20:45:00,
2013-08-16 15:50:00,84.2,59.3,30.15,East,90,0.0,0.0,43,0.00,,,0.00,WUHU21636XXSP,2013-08-16 20:50:00,
2013-08-16 15:55:00,84.2,59.3,30.16,East,90,0.0,0.0,43,0.00,,,0.00,WUHU21636XXSP,2013-08-16 20:55:00,
2013-08-16 16:00:00,83.8,59.6,30.16,East,90,0.0,0.0,44,0.00,,,0.00,WUHU21636XXSP,2013-08-16 21:00:00,
2013-08-16 16:05:00,83.5,60.6,30.16,East,90,0.0,0.0,46,0.00,,,0.00,WUHU21636XXSP,2013-08-16 21:05:00,
2013-08-16 16:10:00,82.8,60.6,30.15,WSW,247,0.0,0.0,47,0.00,,,0.00,WUHU21636XXSP,2013-08-16 21:10:00,
2013-08-16 16:15:00,82.7,60.5,30.15,WSW,247,0.0,0.0,47,0.00,,,0.00,WUHU21636XXSP,2013-08-16 21:15:00,
2013-08-16 16:20:00,82.8,60.0,30.15,WSW,247,0.0,0.0,46,0.00,,,0.00,WUHU21636XXSP,2013-08-16 21:20:00,
2013-08-16 16:25:00,83.5,60.6,30.15,WSW,247,0.0,0.0,46,0.00,,,0.00,WUHU21636XXSP,2013-08-16 21:25:00,
2013-08-16 16:30:00,83.7,60.1,30.15,SW,225,0.0,0.0,45,0.00,,,0.00,WUHU21636XXSP,2013-08-16 21:30:00,
2013-08-16 16:35:00,83.7,60.1,30.15,SSE,157,0.0,0.0,45,0.00,,,0.00,WUHU21636XXSP,2013-08-16 21:35:00,
2013-08-16 16:40:00,83.8,59.6,30.15,South,180,0.0,0.0,44,0.00,,,0.00,WUHU21636XXSP,2013-08-16 21:40:00,
2013-08-16 16:45:00,83.8,59.6,30.15,South,180,0.0,0.0,44,0.00,,,0.00,WUHU21636XXSP,2013-08-16 21:45:00,
2013-08-16 16:50:00,83.7,60.1,30.15,South,180,0.0,0.0,45,0.00,,,0.00,WUHU21636XXSP,2013-08-16 21:50:00,
2013-08-16 16:55:00,83.3,61.0,30.15,South,180,0.0,0.0,47,0.00,,,0.00,WUHU21636XXSP,2013-08-16 21:55:00,
2013-08-16 17:00:00,83.1,60.8,30.15,South,180,0.0,0.0,47,0.00,,,0.00,WUHU21636XXSP,2013-08-16 22:00:00,
2013-08-16 17:05:00,83.1,60.8,30.15,SSW,202,0.0,0.0,47,0.00,,,0.00,WUHU21636XXSP,2013-08-16 22:05:00,
2013-08-16 17:10:00,82.8,61.8,30.15,SSW,202,0.0,0.0,49,0.00,,,0.00,WUHU21636XXSP,2013-08-16 22:10:00,
2013-08-16 17:15:00,82.8,61.8,30.15,South,180,0.0,0.0,49,0.00,,,0.00,WUHU21636XXSP,2013-08-16 22:15:00,
2013-08-16 17:20:00,82.5,61.6,30.15,South,180,0.0,0.0,49,0.00,,,0.00,WUHU21636XXSP,2013-08-16 22:20:00,
2013-08-16 17:25:00,82.3,61.4,30.15,South,180,0.0,0.0,49,0.00,,,0.00,WUHU21636XXSP,2013-08-16 22:25:00,
2013-08-16 17:30:00,82.1,61.2,30.15,South,180,0.0,0.0,49,0.00,,,0.00,WUHU21636XXSP,2013-08-16 22:30:00,
2013-08-16 17:35:00,82.1,61.8,30.15,South,180,0.0,0.0,50,0.00,,,0.00,WUHU21636XXSP,2013-08-16 22:35:00,
2013-08-16 17:40:00,81.6,61.3,30.15,South,180,0.0,0.0,50,0.00,,,0.00,WUHU21636XXSP,2013-08-16 22:40:00,
2013-08-16 17:45:00,81.2,61.5,30.15,South,180,0.0,0.0,51,0.00,,,0.00,WUHU21636XXSP,2013-08-16 22:45:00,
2013-08-16 17:50:00,80.6,61.5,30.15,South,180,0.0,0.0,52,0.00,,,0.00,WUHU21636XXSP,2013-08-16 22:50:00,
2013-08-16 17:55:00,80.2,61.7,30.15,South,180,0.0,0.0,53,0.00,,,0.00,WUHU21636XXSP,2013-08-16 22:55:00,
2013-08-16 18:00:00,79.7,61.2,30.15,South,180,0.0,0.0,53,0.00,,,0.00,WUHU21636XXSP,2013-08-16 23:00:00,
2013-08-16 18:05:00,79.1,60.6,30.15,South,180,0.0,0.0,53,0.00,,,0.00,WUHU21636XXSP,2013-08-16 23:05:00,
2013-08-16 18:10:00,78.8,60.9,30.15,South,180,0.0,0.0,54,0.00,,,0.00,WUHU21636XXSP,2013-08-16 23:10:00,
2013-08-16 18:15:00,78.1,60.3,30.15,South,180,0.0,0.0,54,0.00,,,0.00,WUHU21636XXSP,2013-08-16 23:15:00,
2013-08-16 18:20:00,78.0,60.2,30.15,South,180,0.0,0.0,54,0.00,,,0.00,WUHU21636XXSP,2013-08-16 23:20:00,
2013-08-16 18:25:00,77.4,59.6,30.15,South,180,0.0,0.0,54,0.00,,,0.00,WUHU21636XXSP,2013-08-16 23:25:00,
2013-08-16 18:30:00,76.9,59.6,30.15,South,180,0.0,0.0,55,0.00,,,0.00,WUHU21636XXSP,2013-08-16 23:30:00,
2013-08-16 18:35:00,76.4,59.8,30.15,South,180,0.0,0.0,56,0.00,,,0.00,WUHU21636XXSP,2013-08-16 23:35:00,
2013-08-16 18:40:00,76.1,59.5,30.16,South,180,0.0,0.0,56,0.00,,,0.00,WUHU21636XXSP,2013-08-16 23:40:00,
2013-08-16 18:45:00,75.5,59.4,30.16,South,180,0.0,0.0,57,0.00,,,0.00,WUHU21636XXSP,2013-08-16 23:45:00,
2013-08-16 18:50:00,75.3,59.7,30.16,South,180,0.0,0.0,58,0.00,,,0.00,WUHU21636XXSP,2013-08-16 23:50:00,
2013-08-16 18:55:00,75.3,60.2,30.16,South,180,0.0,0.0,59,0.00,,,0.00,WUHU21636XXSP,2013-08-16 23:55:00,
2013-08-16 19:00:00,75.3,60.2,30.16,South,180,0.0,0.0,59,0.00,,,0.00,WUHU21636XXSP,2013-08-17 00:00:00,
2013-08-16 19:05:00,75.0,60.3,30.16,South,180,0.0,0.0,60,0.00,,,0.00,WUHU21636XXSP,2013-08-17 00:05:00,
2013-08-16 19:10:00,74.6,60.0,30.16,South,180,0.0,0.0,60,0.00,,,0.00,WUHU21636XXSP,2013-08-17 00:10:00,
2013-08-16 19:15:00,74.3,60.2,30.16,South,180,0.0,0.0,61,0.00,,,0.00,WUHU21636XXSP,2013-08-17 00:15:00,
2013-08-16 19:20:00,74.0,59.5,30.16,South,180,0.0,0.0,60,0.00,,,0.00,WUHU21636XXSP,2013-08-17 00:20:00,
2013-08-16 19:25:00,73.6,59.5,30.16,South,180,0.0,0.0,61,0.00,,,0.00,WUHU21636XXSP,2013-08-17 00:25:00,
2013-08-16 19:30:00,72.9,59.3,30.16,South,180,0.0,0.0,62,0.00,,,0.00,WUHU21636XXSP,2013-08-17 00:30:00,
2013-08-16 19:35:00,72.7,59.1,30.16,South,180,0.0,0.0,62,0.00,,,0.00,WUHU21636XXSP,2013-08-17 00:35:00,
2013-08-16 19:40:00,72.4,59.3,30.16,South,180,0.0,0.0,63,0.00,,,0.00,WUHU21636XXSP,2013-08-17 00:40:00,
2013-08-16 19:45:00,72.1,59.0,30.16,South,180,0.0,0.0,63,0.00,,,0.00,WUHU21636XXSP,2013-08-17 00:45:00,
2013-08-16 19:50:00,71.5,58.9,30.16,South,180,0.0,0.0,64,0.00,,,0.00,WUHU21636XXSP,2013-08-17 00:50:00,
2013-08-16 19:55:00,71.4,59.2,30.17,South,180,0.0,0.0,65,0.00,,,0.00,WUHU21636XXSP,2013-08-17 00:55:00,
2013-08-16 20:00:00,70.8,58.6,30.16,South,180,0.0,0.0,65,0.00,,,0.00,WUHU21636XXSP,2013-08-17 01:00:00,
2013-08-16 20:05:00,70.6,58.4,30.16,South,180,0.0,0.0,65,0.00,,,0.00,WUHU21636XXSP,2013-08-17 01:05:00,
2013-08-16 20:10:00,70.2,58.1,30.17,South,180,0.0,0.0,65,0.00,,,0.00,WUHU21636XXSP,2013-08-17 01:10:00,
2013-08-16 20:15:00,69.6,57.9,30.17,South,180,0.0,0.0,66,0.00,,,0.00,WUHU21636XXSP,2013-08-17 01:15:00,
2013-08-16 20:20:00,69.5,57.8,30.17,South,180,0.0,0.0,66,0.00,,,0.00,WUHU21636XXSP,2013-08-17 01:20:00,
2013-08-16 20:25:00,69.1,57.4,30.17,South,180,0.0,0.0,66,0.00,,,0.00,WUHU21636XXSP,2013-08-17 01:25:00,
2013-08-16 20:30:00,68.7,57.5,30.17,South,180,0.0,0.0,67,0.00,,,0.00,WUHU21636XXSP,2013-08-17 01:30:00,
2013-08-16 20:35:00,68.4,57.2,30.17,South,180,0.0,0.0,67,0.00,,,0.00,WUHU21636XXSP,2013-08-17 01:35:00,
2013-08-16 20:40:00,67.9,56.8,30.17,South,180,0.0,0.0,67,0.00,,,0.00,WUHU21636XXSP,2013-08-17 01:40:00,
2013-08-16 20:45:00,67.2,56.5,30.17,South,180,0.0,0.0,68,0.00,,,0.00,WUHU21636XXSP,2013-08-17 01:45:00,
2013-08-16 20:50:00,67.0,56.3,30.17,South,180,0.0,0.0,68,0.00,,,0.00,WUHU21636XXSP,2013-08-17 01:50:00,
2013-08-16 20:55:00,66.8,56.5,30.18,South,180,0.0,0.0,69,0.00,,,0.00,WUHU21636XXSP,2013-08-17 01:55:00,
2013-08-16 21:00:00,66.0,55.7,30.18,South,180,0.0,0.0,69,0.00,,,0.00,WUHU21636XXSP,2013-08-17 02:00:00,
2013-08-16 21:05:00,66.0,55.7,30.18,South,180,0.0,0.0,69,0.00,,,0.00,WUHU21636XXSP,2013-08-17 02:05:00,
2013-08-16 21:10:00,65.8,55.9,30.18,South,180,0.0,0.0,70,0.00,,,0.00,WUHU21636XXSP,2013-08-17 02:10:00,
2013-08-16 21:15:00,65.5,55.6,30.18,South,180,0.0,0.0,70,0.00,,,0.00,WUHU21636XXSP,2013-08-17 02:15:00,
2013-08-16 21:20:00,65.3,55.4,30.18,South,180,0.0,0.0,70,0.00,,,0.00,WUHU21636XXSP,2013-08-17 02:20:00,
2013-08-16 21:25:00,64.9,55.4,30.18,South,180,0.0,0.0,71,0.00,,,0.00,WUHU21636XXSP,2013-08-17 02:25:00,
2013-08-16 21:30:00,64.6,55.1,30.18,South,180,0.0,0.0,71,0.00,,,0.00,WUHU21636XXSP,2013-08-17 02:30:00,
2013-08-16 21:35:00,64.4,55.3,30.18,South,180,0.0,0.0,72,0.00,,,0.00,WUHU21636XXSP,2013-08-17 02:35:00,
2013-08-16 21:40:00,63.9,54.9,30.18,South,180,0.0,0.0,72,0.00,,,0.00,WUHU21636XXSP,2013-08-17 02:40:00,
2013-08-16 21:45:00,63.8,54.8,30.18,South,180,0.0,0.0,72,0.00,,,0.00,WUHU21636XXSP,2013-08-17 02:45:00,
2013-08-16 21:50:00,63.6,54.6,30.18,South,180,0.0,0.0,72,0.00,,,0.00,WUHU21636XXSP,2013-08-17 02:50:00,
2013-08-16 21:55:00,63.4,54.4,30.18,South,180,0.0,0.0,72,0.00,,,0.00,WUHU21636XXSP,2013-08-17 02:55:00,
2013-08-16 22:00:00,63.2,54.5,30.18,South,180,0.0,0.0,73,0.00,,,0.00,WUHU21636XXSP,2013-08-17 03:00:00,
2013-08-16 22:05:00,63.0,54.3,30.18,South,180,0.0,0.0,73,0.00,,,0.00,WUHU21636XXSP,2013-08-17 03:05:00,
2013-08-16 22:10:00,63.0,54.7,30.18,South,180,0.0,0.0,74,0.00,,,0.00,WUHU21636XXSP,2013-08-17 03:10:00,
2013-08-16 22:15:00,62.7,54.4,30.18,South,180,0.0,0.0,74,0.00,,,0.00,WUHU21636XXSP,2013-08-17 03:15:00,
2013-08-16 22:20:00,62.3,54.0,30.18,South,180,0.0,0.0,74,0.00,,,0.00,WUHU21636XXSP,2013-08-17 03:20:00,
2013-08-16 22:25:00,62.3,54.0,30.18,South,180,0.0,0.0,74,0.00,,,0.00,WUHU21636XXSP,2013-08-17 03:25:00,
2013-08-16 22:30:00,62.1,54.1,30.18,South,180,0.0,0.0,75,0.00,,,0.00,WUHU21636XXSP,2013-08-17 03:30:00,
2013-08-16 22:35:00,62.0,54.0,30.18,South,180,0.0,0.0,75,0.00,,,0.00,WUHU21636XXSP,2013-08-17 03:35:00,
2013-08-16 22:40:00,61.7,53.8,30.18,South,180,0.0,0.0,75,0.00,,,0.00,WUHU21636XXSP,2013-08-17 03:40:00,
2013-08-16 22:45:00,61.5,54.0,30.18,South,180,0.0,0.0,76,0.00,,,0.00,WUHU21636XXSP,2013-08-17 03:45:00,
2013-08-16 22:50:00,61.3,53.8,30.18,South,180,0.0,0.0,76,0.00,,,0.00,WUHU21636XXSP,2013-08-17 03:50:00,
2013-08-16 22:55:00,61.1,53.6,30.18,South,180,0.0,0.0,76,0.00,,,0.00,WUHU21636XXSP,2013-08-17 03:55:00,
2013-08-16 23:00:00,61.1,53.6,30.18,South,180,0.0,0.0,76,0.00,,,0.00,WUHU21636XXSP,2013-08-17 04:00:00,
2013-08-16 23:01:00,61.1,53.6,30.18,South,180,0.0,0.0,76,0.00,,,0.00,WUHU21636XXSP,2013-08-17 04:01:00,
2013-08-16 23:06:00,61.0,53.5,30.18,South,180,0.0,0.0,76,0.00,,,0.00,WUHU21636XXSP,2013-08-17 04:06:00,
2013-08-16 23:11:00,60.8,53.6,30.18,South,180,0.0,0.0,77,0.00,,,0.00,WUHU21636XXSP,2013-08-17 04:11:00,
2013-08-16 23:16:00,60.6,53.4,30.18,South,180,0.0,0.0,77,0.00,,,0.00,WUHU21636XXSP,2013-08-17 04:16:00,
2013-08-16 23:21:00,60.4,53.2,30.18,South,180,0.0,0.0,77,0.00,,,0.00,WUHU21636XXSP,2013-08-17 04:21:00,
2013-08-16 23:26:00,60.4,53.2,30.18,South,180,0.0,0.0,77,0.00,,,0.00,WUHU21636XXSP,2013-08-17 04:26:00,
2013-08-16 23:31:00,60.2,53.4,30.18,South,180,0.0,0.0,78,0.00,,,0.00,WUHU21636XXSP,2013-08-17 04:31:00,
2013-08-16 23:36:00,60.2,53.4,30.18,South,180,0.0,0.0,78,0.00,,,0.00,WUHU21636XXSP,2013-08-17 04:36:00,
2013-08-16 23:41:00,60.1,53.3,30.18,South,180,0.0,0.0,78,0.00,,,0.00,WUHU21636XXSP,2013-08-17 04:41:00,
2013-08-16 23:46:00,60.1,53.3,30.18,South,180,0.0,0.0,78,0.00,,,0.00,WUHU21636XXSP,2013-08-17 04:46:00,
2013-08-16 23:51:00,59.8,53.4,30.18,South,180,0.0,0.0,79,0.00,,,0.00,WUHU21636XXSP,2013-08-17 04:51:00,
2013-08-16 23:56:00,59.8,53.4,30.18,South,180,0.0,0.0,79,0.00,,,0.00,WUHU21636XXSP,2013-08-17 04:56:00,